This demonstration page uses our WeatherBlox Daily Observations layout. Learn more.

Left ArrowRight Arrow

31.84235, -102.49876

Hourly Observations for July 19, 2022

Temp ( °F °C ) Dew Point ( °F °C ) Humidity (%) Winds ( mph kmh ) Pressure ( in mb ) Visibility ( mi km ) Precip ( " mm )
12:53 am 00:53 Clear 89 31.7 50 10 26 26 SSW 16 26 29.83 1010 10 16 0.00 0.00
1:53 am 01:53 Clear 87 30.6 50 10 28 28 SSW 15 24 29.83 1010 10 16 0.00 0.00
2:53 am 02:53 Clear 84 28.9 51 10.6 32 32 SSW 10 17 29.83 1010 10 16 0.00 0.00
3:53 am 03:53 Clear 83 28.3 51 10.6 33 33 SW 7 11 29.82 1010 10 16 0.00 0.00
4:53 am 04:53 Clear 81 27.2 52 11.1 37 37 SSW 9 15 29.83 1010 10 16 0.00 0.00
5:53 am 05:53 Clear 80 26.7 52 11.1 38 38 SW 9 15 29.83 1010 10 16 0.00 0.00
6:53 am 06:53 Clear 81 27.2 52 11.1 37 37 SW 12 19 29.84 1011 10 16 0.00 0.00
7:53 am 07:53 Sunny 82 27.8 52 11.1 35 35 SSW 12 19 29.85 1011 10 16 0.00 0.00
8:53 am 08:53 Sunny 85 29.4 52 11.1 32 32 SSW 17 28 29.87 1011 10 16 0.00 0.00
9:53 am 09:53 Sunny 89 31.7 53 11.7 29 29 SW 16 26 29.87 1012 10 16 0.00 0.00
10:53 am 10:53 Sunny 94 34.4 52 11.1 24 24 SSW 18 30 29.86 1011 10 16 0.00 0.00
11:53 am 11:53 Sunny 96 35.6 51 10.6 22 22 SW 9 15 29.86 1011 10 16 0.00 0.00
12:53 pm 12:53 Sunny 100 37.8 49 9.4 18 18 SW 13 20 29.84 1011 10 16 0.00 0.00
1:53 pm 13:53 Sunny 101 38.3 49 9.4 17 17 SSW 10 17 29.82 1010 10 16 0.00 0.00
2:53 pm 14:53 Sunny 103 39.4 48 8.9 16 16 SSE 15 24 29.80 1009 10 16 0.00 0.00
3:53 pm 15:53 Sunny 104 40 44 6.7 13 13 S 9 15 29.78 1008 10 16 0.00 0.00
4:53 pm 16:53 Sunny 103 39.4 43 6.1 13 13 SW 14 22 29.76 1008 10 16 0.00 0.00
5:53 pm 17:53 Sunny 103 39.4 42 5.6 12 12 SSE 12 19 29.75 1007 10 16 0.00 0.00
6:53 pm 18:53 Sunny 104 40 41 5 12 12 SSE 12 19 29.73 1007 10 16 0.00 0.00
7:53 pm 19:53 Sunny 101 38.3 41 5 13 13 S 10 17 29.73 1007 10 16 0.00 0.00
8:53 pm 20:53 Sunny 98 36.7 44 6.7 16 16 S 9 15 29.74 1007 10 16 0.00 0.00
9:53 pm 21:53 Clear 96 35.6 46 7.8 18 18 S 12 19 29.75 1008 10 16 0.00 0.00
10:53 pm 22:53 Clear 94 34.4 47 8.3 20 20 S 13 20 29.78 1008 10 16 0.00 0.00
11:53 pm 23:53 Clear 92 33.3 49 9.4 23 23 S 17 28 29.78 1009 10 16 0.00 0.00

Powered by AerisWeather